Regional Weather Roundup
Issued by NWS

Home | Current Version | Previous Version | Text Only | Print | Product List | Glossary Off
Versions: 1 2 3 4 5 6 7 8 9 10 11 12 13 14 15 16 17 18 19 20 21 22 23 24 25 26 27 28 29 30 31 32 33 34 35 36 37 38 39 40 41 42 43 44 45 46 47 48 49 50

934
ASUS43 KDMX 100201
RWRIA

WEATHER ROUNDUP FOR IOWA
NATIONAL WEATHER SERVICE DES MOINES IA
800 PM CST FRI DEC 09 2016

NOTE: "FAIR" INDICATES FEW OR NO CLOUDS BELOW 12,000 FEET WITH NO
SIGNIFICANT WEATHER AND/OR OBSTRUCTIONS TO VISIBILITY.

* - THESE STATIONS ARE NOT NWS STATIONS...THUS NOT UNDER NWS
QUALITY CONTROL.  THEY ALSO DO NOT REPORT WEATHER SUCH
AS PRECIPITATION OR FOG.

IAZ001>003-012>014-020>022-031>034-043>046-100300-
   NORTHWEST IOWA

CITY           SKY/WX    TMP DP  RH WIND       PRES   REMARKS
CARROLL *      CLOUDY    19  10  68 CALM      30.51S
CHEROKEE *     CLOUDY    17  12  80 CALM      30.50F
DENISON *      CLOUDY    19  10  68 CALM      30.48F
LE MARS *      CLOUDY    18   9  68 S5        30.51F WCI  11
ORANGE CITY *  CLOUDY    16  10  79 CALM      30.48F
SHELDON *      LGT SNOW  14  12  92 CALM      30.47F
SIOUX CITY     FLURRIES  19  10  68 E3        30.52S
SPENCER        CLOUDY    16  10  77 W9        30.49F WCI   4
STORM LAKE *   CLOUDY    16  10  79 CALM      30.48F
$$

IAZ055>058-069>071-079>083-090>094-100300-
   SOUTHWEST IOWA

CITY           SKY/WX    TMP DP  RH WIND       PRES   REMARKS
ATLANTIC *     CLOUDY    21  12  68 CALM      30.51F
AUDUBON *      CLOUDY    19  12  73 CALM      30.50S
CLARINDA *     CLOUDY    23  14  68 CALM      30.55S
COUNCIL BLFS * CLOUDY    21  14  73 SE6       30.51S WCI  14
CRESTON *      CLOUDY    21  12  68 CALM      30.52S
HARLAN  *      CLOUDY    21  12  68 S3        30.54S
LAMONI         CLOUDY    22  12  65 CALM      30.52F
RED OAK *      CLOUDY    23  14  68 SE5       30.53S WCI  17
SHENANDOAH *   CLOUDY    23  14  68 SE5       30.54S WCI  17
$$

IAZ047>049-059>061-072>074-084-100300-
   CENTRAL IOWA

CITY           SKY/WX    TMP DP  RH WIND       PRES   REMARKS
AMES           CLOUDY    20  14  77 CALM      30.53S
ANKENY *       CLOUDY    21  12  68 CALM      30.55S
BOONE *        CLOUDY    19  10  68 CALM      30.50F
CHARITON *     CLOUDY    21  12  68 CALM      30.53S
DES MOINES     CLOUDY    23  11  60 SW6       30.53F WCI  16
GRINNELL*      CLOUDY    20  14  75 SW3       30.53S
KNOXVILLE *    CLOUDY    21  10  63 S3        30.52F
MARSHALLTOWN   CLOUDY    19  14  81 SW3       30.51F
NEWTON *       CLOUDY    19  12  73 CALM      30.52F
PELLA *        CLOUDY    22  11  62 SW5       30.55F WCI  16
PERRY *          N/A     21  13  72 CALM      30.53S
$$

IAZ004>006-015-016-023>025-035-036-100300-
   NORTH CENTRAL IOWA

CITY           SKY/WX    TMP DP  RH WIND       PRES   REMARKS
ALGONA *       CLOUDY    19  12  73 CALM      30.49S
CLARION *      CLOUDY    19  12  73 W7        30.50F WCI  10
ESTHERVILLE    CLOUDY    15  11  83 NW7       30.48S WCI   5
FORT DODGE *   CLOUDY    19   9  63 CALM      30.51F
MASON CITY     CLOUDY    18  10  71 W9        30.50F WCI   7
WEBSTER CITY * CLOUDY    19  14  79 CALM      30.49F
IOWA FALLS *   CLOUDY    20  14  77 W6        30.52S WCI  13
$$

IAZ007>011-017>019-026>030-037>042-050>054-066-100300-
   NORTHEAST IOWA

CITY           SKY/WX    TMP DP  RH WIND       PRES   REMARKS
CEDAR RAPIDS   CLOUDY    17  15  92 CALM      30.52F
CHARLES CITY * CLOUDY    16  12  86 CALM      30.50S
CLINTON *      CLOUDY    18  14  84 W7        30.54F WCI   9
DECORAH *      CLOUDY    16  12  86 CALM      30.48S
DUBUQUE        MOCLDY    14  10  84 W8        30.50S WCI   3
MONTICELLO *   CLOUDY    18  12  79 CALM      30.53S
OELWEIN *      CLOUDY    16  14  93 S5        30.51S WCI   9
WATERLOO       CLOUDY    19  12  74 SW5       30.52S WCI  12
$$

IAZ064-065-067-068-078-100300-
   EAST CENTRAL IOWA

CITY           SKY/WX    TMP DP  RH WIND       PRES   REMARKS
DAVENPORT      PTCLDY    19  13  77 W7        30.54F WCI  10
IOWA CITY      CLOUDY    20  13  74 CALM      30.57S
MUSCATINE *    CLOUDY    21  14  73 W3        30.57F
QUAD CITIES    CLOUDY    21  12  68 W7        30.56S WCI  12
$$

IAZ062-063-075>077-085>089-095>099-100300-
   SOUTHEAST IOWA

CITY           SKY/WX    TMP DP  RH WIND       PRES   REMARKS
BURLINGTON     CLOUDY    20  14  77 CALM      30.56S
FAIRFIELD *    CLOUDY    21  12  68 CALM      30.55F
FORT MADISON * CLOUDY    21  14  73 CALM      30.57S
KEOKUK *       CLOUDY    23  14  68 CALM      30.57S
OSKALOOSA *    CLOUDY    20  14  77 CALM      30.55S
CENTERVILLE *  CLOUDY    23  12  63 CALM      30.55F
OTTUMWA        CLOUDY    21  12  68 CALM      30.54F
WASHINGTON *   CLOUDY    19  14  79 SW5       30.56F WCI  13
$$

ABBREVIATIONS USED IN REMARKS
   TC - TEMPERATURES IN CELSIUS
  WCI - WIND CHILL INDEX
   HX - HEAT INDEX
  VSB - VISIBILITY
$$





USA.gov is the U.S. government's official web portal to all federal, state and local government web resources and services.